Location: Barcelona
(41.3830°N, 2.1830°E)
Time: 08:43:11
(UTC+02:00)

ISS - Pass Details

Date: 23 July 2017
Orbit: 400 x 408 km, 51.6° (Epoch: 21 July)

Event Time Altitude Azimuth Distance (km) Brightness Sun altitude
Rises 21:43:24 0° 195° (SSW) 2,295 -0.2 -5.1°
Reaches altitude 10° 21:45:58 10° 174° (S) 1,441 -1.4 -5.5°
Maximum altitude 21:48:06 17° 132° (SE) 1,113 -2.2 -5.8°
Drops below altitude 10° 21:50:15 10° 90° (E) 1,447 -1.5 -6.2°
Sets 21:52:50 0° 69° (ENE) 2,310 -0.3 -6.6°
